Williams, AZ

4:25 PM MST on January 20, 2018 (GMT -0700)
Williams

Weather History for KCMR - May, 2013

Change the Weather History Date:

Tuesday, May 7, 2013

  Actual Average (K40G) Record (K40G)
Temperature  
Mean Temperature 44 °F -  
Max Temperature 55 °F 65 °F 75 °F (1997)
Min Temperature 32 °F 55 °F 46 °F (1998)
Degree Days  
Heating Degree Days 22    
Moisture  
Dew Point 34 °F    
Average Humidity 66    
Maximum Humidity 100    
Minimum Humidity 43    
Precipitation  
Precipitation 0.12 in - - ()
Sea Level Pressure  
Sea Level Pressure 30.11 in    
Wind  
Wind Speed 10 mph (South)    
Max Wind Speed 22 mph    
Max Gust Speed 31 mph    
Visibility 10 miles    
Events      
Averages and records for this station are not official NWS values.
T = Trace of Precipitation, MM = Missing Value Source: NWS Daily Summary

Daily Weather History Graph

Daily Weather History Graph

Search for Another Location

Airport or City:

Trip Planner

Search our weather history database for the weather conditions in past years. The results will help you decide how hot, cold, wet, or windy it might be!

Date:

Astronomy

May. 07, 2013 Rise Set
Actual Time 5:31 AM MST 7:19 PM MST
Civil Twilight 5:03 AM MST 7:47 PM MST
Nautical Twilight 4:30 AM MST 8:21 PM MST
Astronomical Twilight 3:54 AM MST 8:56 PM MST
Moon 4:02 AM MST (5/7) 5:26 PM MST (5/7)
Length of Visible Light 14h 44m
Length of Day
13h 48m
Waning Crescent, 5% of the Moon is Illuminated
May 7
Waning Crescent
May 9
New
May 17
First Quarter
May 24
Full
May 31
Last Quarter

Hourly Weather History & Observations

Time (MST) Temp. Windchill Dew Point Humidity Pressure Visibility Wind Dir Wind Speed Gust Speed Precip Events Conditions
12:15 AM 44.6 °F 40.7 °F 32.0 °F 61% 30.14 in 10.0 mi South 6.9 mph - N/A   Clear
12:35 AM 44.6 °F 42.2 °F 32.0 °F 61% 30.14 in 10.0 mi SSE 4.6 mph - N/A   Clear
1:15 AM 41.0 °F 38.0 °F 32.0 °F 70% 30.13 in 10.0 mi SSE 4.6 mph - N/A   Clear
1:35 AM 42.8 °F 40.1 °F 32.0 °F 66% 30.12 in 10.0 mi SE 4.6 mph - N/A   Clear
1:55 AM 41.0 °F - 33.8 °F 76% 30.12 in 10.0 mi Calm Calm - N/A   Clear
2:15 AM 41.0 °F - 32.0 °F 70% 30.11 in 10.0 mi Calm Calm - N/A   Clear
2:35 AM 44.6 °F 40.2 °F 35.6 °F 71% 30.11 in 10.0 mi SSE 8.1 mph - N/A   Clear
2:55 AM 44.6 °F 40.2 °F 35.6 °F 71% 30.11 in 10.0 mi SSW 8.1 mph - N/A   Partly Cloudy
3:15 AM 42.8 °F 40.1 °F 35.6 °F 76% 30.11 in 10.0 mi South 4.6 mph - N/A   Clear
3:35 AM 44.6 °F 40.7 °F 35.6 °F 71% 30.11 in 10.0 mi SSW 6.9 mph - N/A   Clear
3:55 AM 44.6 °F 40.2 °F 35.6 °F 71% 30.11 in 10.0 mi South 8.1 mph - N/A   Clear
4:15 AM 44.6 °F 39.2 °F 35.6 °F 71% 30.10 in 10.0 mi South 10.4 mph 19.6 mph N/A   Clear
4:35 AM 44.6 °F 39.2 °F 35.6 °F 71% 30.11 in 10.0 mi South 10.4 mph - N/A   Clear
4:55 AM 44.6 °F 39.2 °F 35.6 °F 71% 30.11 in 10.0 mi South 10.4 mph - N/A   Clear
5:15 AM 44.6 °F 39.7 °F 35.6 °F 71% 30.11 in 10.0 mi South 9.2 mph 19.6 mph N/A   Scattered Clouds
5:35 AM 44.6 °F 39.7 °F 35.6 °F 71% 30.11 in 10.0 mi South 9.2 mph - N/A   Partly Cloudy
5:55 AM 44.6 °F 40.2 °F 35.6 °F 71% 30.11 in 10.0 mi South 8.1 mph - N/A   Scattered Clouds
6:15 AM 46.4 °F 41.1 °F 35.6 °F 66% 30.11 in 10.0 mi South 11.5 mph - N/A   Overcast
6:35 AM 46.4 °F 40.7 °F 35.6 °F 66% 30.12 in 10.0 mi SSW 12.7 mph 21.9 mph N/A   Mostly Cloudy
6:55 AM 46.4 °F 41.9 °F 35.6 °F 66% 30.12 in 10.0 mi SSW 9.2 mph - N/A   Scattered Clouds
7:15 AM 46.4 °F 40.7 °F 35.6 °F 66% 30.12 in 10.0 mi South 12.7 mph 17.3 mph N/A   Mostly Cloudy
7:35 AM 46.4 °F 41.5 °F 35.6 °F 66% 30.12 in 10.0 mi SSW 10.4 mph 17.3 mph N/A   Mostly Cloudy
7:55 AM 48.2 °F - 35.6 °F 62% 30.12 in 10.0 mi South 15.0 mph 20.7 mph N/A   Scattered Clouds
8:15 AM 50.0 °F - 33.8 °F 54% 30.12 in 10.0 mi South 17.3 mph 24.2 mph N/A   Scattered Clouds
8:35 AM 48.2 °F - 32.0 °F 54% 30.12 in 10.0 mi SSW 16.1 mph 24.2 mph N/A   Mostly Cloudy
8:55 AM 48.2 °F - 32.0 °F 54% 30.12 in 10.0 mi South 15.0 mph 23.0 mph N/A   Mostly Cloudy
9:15 AM 50.0 °F - 32.0 °F 50% 30.13 in 10.0 mi South 12.7 mph 26.5 mph N/A   Mostly Cloudy
9:35 AM 48.2 °F - 33.8 °F 58% 30.13 in 10.0 mi South 13.8 mph 21.9 mph N/A   Mostly Cloudy
9:55 AM 48.2 °F - 35.6 °F 62% 30.12 in 9.0 mi SSW 16.1 mph 23.0 mph N/A   Overcast
10:15 AM 50.0 °F - 32.0 °F 50% 30.12 in 10.0 mi SSW 18.4 mph 27.6 mph N/A   Scattered Clouds
10:35 AM 53.6 °F - 35.6 °F 51% 30.12 in 10.0 mi South 18.4 mph 25.3 mph N/A   Scattered Clouds
10:55 AM 53.6 °F - 37.4 °F 54% 30.12 in 10.0 mi South 18.4 mph 25.3 mph N/A   Partly Cloudy
11:15 AM 53.6 °F - 35.6 °F 51% 30.12 in 10.0 mi South 21.9 mph 31.1 mph N/A   Scattered Clouds
11:35 AM 53.6 °F - 35.6 °F 51% 30.12 in 10.0 mi South 13.8 mph 27.6 mph N/A   Mostly Cloudy
11:55 AM 53.6 °F - 37.4 °F 54% 30.11 in 9.0 mi South 19.6 mph 26.5 mph N/A   Scattered Clouds
12:15 PM 55.4 °F - 33.8 °F 44% 30.10 in 10.0 mi South 19.6 mph 31.1 mph N/A   Partly Cloudy
12:35 PM 53.6 °F - 35.6 °F 51% 30.10 in 10.0 mi South 17.3 mph 31.1 mph N/A   Partly Cloudy
12:55 PM 51.8 °F - 32.0 °F 47% 30.10 in 10.0 mi South 18.4 mph 25.3 mph N/A   Mostly Cloudy
1:15 PM 55.4 °F - 35.6 °F 47% 30.09 in 10.0 mi SSE 20.7 mph 27.6 mph N/A   Mostly Cloudy
1:35 PM 50.0 °F - 35.6 °F 58% 30.10 in 10.0 mi SSE 18.4 mph - N/A   Mostly Cloudy
1:55 PM 48.2 °F - 37.4 °F 66% 30.10 in 5.0 mi South 20.7 mph 28.8 mph N/A   Mostly Cloudy
2:15 PM 46.4 °F 41.1 °F 39.2 °F 76% 30.09 in 8.0 mi SE 11.5 mph 20.7 mph 0.01 in   Mostly Cloudy
2:55 PM 48.2 °F - 35.6 °F 62% 30.07 in 10.0 mi SE 18.4 mph 27.6 mph 0.01 in   Mostly Cloudy
3:15 PM 50.0 °F - 35.6 °F 58% 30.06 in 10.0 mi SE 17.3 mph 20.7 mph N/A   Mostly Cloudy
3:35 PM 50.0 °F - 32.0 °F 50% 30.06 in 10.0 mi South 13.8 mph 20.7 mph N/A   Mostly Cloudy
3:55 PM 50.0 °F - 28.4 °F 43% 30.06 in 10.0 mi SSW 12.7 mph 27.6 mph N/A   Mostly Cloudy
4:15 PM 50.0 °F - 32.0 °F 50% 30.05 in 10.0 mi SSW 17.3 mph 26.5 mph N/A   Scattered Clouds
4:35 PM 46.4 °F 40.7 °F 33.8 °F 62% 30.06 in 4.0 mi South 12.7 mph 29.9 mph N/A   Mostly Cloudy
4:55 PM 48.2 °F - 32.0 °F 54% 30.06 in 10.0 mi SSW 13.8 mph 18.4 mph N/A   Mostly Cloudy
5:15 PM 50.0 °F - 30.2 °F 47% 30.05 in 10.0 mi SSW 12.7 mph 28.8 mph N/A   Partly Cloudy
5:35 PM 51.8 °F - 32.0 °F 47% 30.05 in 10.0 mi SSW 16.1 mph 27.6 mph N/A   Mostly Cloudy
5:55 PM 50.0 °F - 30.2 °F 47% 30.04 in 10.0 mi South 16.1 mph 26.5 mph N/A   Partly Cloudy
6:15 PM 48.2 °F - 32.0 °F 54% 30.04 in 10.0 mi South 20.7 mph 27.6 mph N/A   Mostly Cloudy
6:35 PM 46.4 °F 39.0 °F 32.0 °F 57% 30.04 in 10.0 mi SSW 19.6 mph 28.8 mph N/A   Scattered Clouds
6:55 PM 44.6 °F 38.4 °F 33.8 °F 66% 30.06 in 10.0 mi WSW 12.7 mph 18.4 mph N/A   Mostly Cloudy
7:15 PM 39.2 °F 32.0 °F 33.8 °F 81% 30.09 in 4.0 mi SW 11.5 mph 19.6 mph 0.03 in   Mostly Cloudy
7:35 PM 37.4 °F 30.3 °F 33.8 °F 87% 30.09 in 8.0 mi South 10.4 mph - 0.05 in   Mostly Cloudy
7:55 PM 37.4 °F 30.8 °F 32.0 °F 81% 30.11 in 8.0 mi West 9.2 mph - 0.11 in   Mostly Cloudy
8:15 PM 37.4 °F 30.8 °F 32.0 °F 81% 30.11 in 10.0 mi West 9.2 mph - N/A   Scattered Clouds
8:35 PM 37.4 °F 32.8 °F 32.0 °F 81% 30.13 in 10.0 mi SW 5.8 mph - N/A   Mostly Cloudy
8:55 PM 35.6 °F - 32.0 °F 87% 30.13 in 10.0 mi Calm Calm - N/A   Overcast
9:15 PM 35.6 °F 31.7 °F 32.0 °F 87% 30.13 in 10.0 mi South 4.6 mph - N/A   Mostly Cloudy
9:35 PM 35.6 °F - 32.0 °F 87% 30.12 in 10.0 mi Calm Calm - N/A   Partly Cloudy
9:55 PM 35.6 °F 29.9 °F 32.0 °F 87% 30.13 in 10.0 mi SW 6.9 mph - N/A   Partly Cloudy
10:15 PM 35.6 °F - 30.2 °F 81% 30.14 in 10.0 mi Calm Calm - N/A   Clear
10:35 PM 35.6 °F - 30.2 °F 81% 30.13 in 10.0 mi Calm Calm - N/A   Clear
10:55 PM 32.0 °F - 32.0 °F 100% 30.14 in 10.0 mi Calm Calm - N/A   Clear
11:15 PM 32.0 °F - 30.2 °F 93% 30.14 in 10.0 mi Calm Calm - N/A   Clear
11:35 PM 32.0 °F - 30.2 °F 93% 30.14 in 10.0 mi Calm Calm - N/A   Clear
11:55 PM 32.0 °F 28.7 °F 30.2 °F 93% 30.14 in 10.0 mi SE 3.5 mph - N/A   Clear